Vertical_Velocity
2 -4 -4 -6 -2 -2 -2 -2 -1 1 2 -8 1 1 2 1 0 0 1 0 0 -0 0 0 1 -1 -1 1 0 0 1 1 1 1 1 2 0 1 -0 -1 -1 -2 -1 -0
-1 -6 -3 -1 -0 -3 -1 -1 2 2 0 -8 1 3 1 1 1 -1 -0 0 0 -1 -0 1 1 1 0 -1 -1 -0 1 1 1 2 1 1 1 1 1 0 0 1 -0 -1
-5 -3 -1 -2 1 -1 1 -3 -0 -7 2 -1 -2 1 3 2 0 1 1 -0 -0 -1 -0 1 1 1 1 0 -1 -1 -0 0 0 -0 1 1 1 1 1 1 1 -1 1 0
-1 -1 -2 1 -1 -5 0 -2 -2 -1 -1 -2 0 -4 1 1 2 2 2 2 -0 -1 -1 0 0 1 1 -1 -0 1 1 0 -0 0 0 1 1 0 -1 -1 -0 -0 -0 -1
-15 0 1 1 -6 -2 -4 -4 -4 -1 -1 -4 2 1 2 0 3 0 2 1 1 1 -0 0 -0 1 1 2 -0 0 0 1 0 1 -0 -0 -1 -1 -1 -0 -0 0 -1 -1
-3 1 -4 -11 0 -3 -1 -4 -2 -0 -1 1 -3 -2 -3 -2 -6 3 4 2 0 0 -0 0 -0 1 1 1 1 -0 0 -1 0 1 0 -0 -0 -1 1 -0 -0 -0 -1 -1
1 -0 0 -3 -4 -0 -2 -2 -1 1 3 -5 -0 4 -3 0 1 -8 -6 1 1 1 0 0 0 1 0 2 1 -0 -0 -0 -0 -0 -0 -1 -1 -1 -1 -1 -1 -1 -1 -1
-3 3 -2 -2 -7 -13 -3 -8 -8 -6 -2 -2 1 -4 -1 2 1 1 3 -1 2 1 0 0 0 0 0 1 1 -0 -0 -0 0 -0 -1 -1 -1 -1 -1 -1 -2 -2 -2 -2
-0 -2 -0 0 0 -17 -7 2 -13 -4 -1 -1 -4 -1 4 2 5 5 2 1 1 1 0 -0 -0 0 0 1 0 -0 -1 -1 -1 -1 -1 -1 -1 -1 -2 -2 -2 -2 -2 -1
-3 -1 -0 -0 1 1 -7 -7 1 -1 -1 0 -0 -1 -3 4 3 3 6 2 1 1 0 -0 -0 -0 -0 -0 -0 -1 -1 -1 -1 -1 -1 -1 -1 -1 -2 -2 -1 -1 -1 -1
-1 -0 1 -0 0 -3 1 2 1 -6 -3 -4 -1 -7 2 -5 -4 -3 0 1 -2 -1 -0 -0 -0 -1 -1 -1 -1 -1 -0 -0 -0 -1 -0 -1 -1 -1 -1 -1 -1 -1 -1 -0
-3 -3 -0 -1 1 1 -0 0 -1 2 -3 -0 -3 -6 0 -1 -3 -5 -0 -2 0 2 0 0 0 -0 -1 -1 -1 -1 -1 -1 -1 -1 -1 -0 -1 -1 -1 -1 -1 -1 -1 -2
-5 -0 0 1 1 -2 0 -0 0 -0 -1 -2 -1 -5 -1 3 5 5 -2 1 1 0 0 -0 -0 -0 -0 -1 -1 -1 -1 -1 -1 -1 -1 -1 -1 -1 -2 -2 -2 -2 -1 -2
-2 -0 -2 -9 -5 -4 2 1 0 -3 0 -2 -4 -1 2 4 0 5 6 6 1 -0 0 1 0 -0 0 1 0 -0 -1 -0 -0 -1 -1 -1 -2 -2 -2 -2 -2 -2 -2 -2
0 -2 -2 1 0 -1 -0 -1 1 1 -2 -1 -3 -1 -5 -4 -3 -2 -4 1 -0 -0 -1 -0 -0 -1 -1 -1 -1 -1 -1 -2 -2 -3 -4 -3 -2 -2 -1 -1 -1 -1 -2 -1
-0 0 -1 1 0 -0 -0 0 -0 0 1 -0 -0 -0 -1 7 1 1 -1 -2 -1 -0 -1 -1 -0 -0 -1 -1 -1 -1 -1 -2 -1 -1 0 0 -0 -1 -2 -2 -2 -3 -3 -3
-1 -2 1 1 -0 1 2 -2 -0 0 0 -2 -1 0 -0 4 2 -2 -2 -1 -2 -1 -1 -0 -0 1 0 -1 -1 -1 -0 -1 -1 -1 -1 -1 -2 -1 -2 -1 -1 -1 -1 -1
-1 -1 -1 1 1 2 0 0 1 -3 1 -0 -0 2 -2 -2 2 -2 1 -1 -1 -1 -0 0 -0 -1 -1 -1 -2 -1 -2 -2 -3 -2 -2 -3 -3 -3 -2 -2 -2 -1 -3 -2
-1 -1 -1 -3 -0 1 1 -1 -3 -3 1 -1 -1 3 3 2 0 2 0 -1 0 0 -0 -0 -1 -1 0 -0 -2 -0 1 -0 -2 1 -0 1 0 -0 -0 -0 -1 1 -2 -2
0 -2 -5 0 -1 -3 0 0 0 0 -4 -1 -3 1 -3 2 -1 -2 -0 1 0 0 -0 1 0 0 0 1 -1 -1 -0 -2 -0 -1 -2 -1 -1 -2 -3 -1 -1 -1 0 -2
1 0 -2 0 -1 -5 -1 0 -1 -1 -4 0 -2 -1 -2 -3 -0 -0 0 -1 -0 -0 -1 -2 -2 -1 -1 -3 -5 -3 -2 -0 -1 -3 -3 -2 -0 -1 -1 -2 -1 -1 -2 -3
-2 -1 0 0 -0 -2 1 -0 -2 -1 7 -1 2 0 -3 -1 0 -0 -0 -1 -1 -0 -1 -2 -3 -2 0 -1 -4 -3 -4 3 -1 -2 -3 -2 -1 -0 -2 -3 -4 -3 -3 -3
-0 1 -2 1 2 0 1 1 2 0 -4 3 -4 -1 -0 -1 0 1 0 0 -1 -2 -2 -2 -3 -3 3 3 1 -4 3 0 0 -2 -3 -4 -2 -1 0 -2 -3 -5 -2 -2
-0 -0 -2 -1 0 0 1 2 2 2 -2 0 2 0 -1 -3 -2 -2 -2 -2 -1 -1 -1 -2 -2 -2 -3 3 0 -0 -2 1 -0 -1 -1 1 -1 0 -0 2 2 0 -0 -1
-1 -1 -1 2 -0 2 1 3 2 1 1 -1 -1 -2 -2 -1 -1 -1 -1 -1 -0 0 1 1 1 -1 -2 -1 -1 3 2 2 -3 -1 -2 -2 -1 -0 -1 3 2 -1 3 2
-0 -2 -2 -4 -7 -0 -0 2 4 -1 -3 -2 -2 -2 -0 -0 -1 -0 0 0 -0 -0 0 -1 -0 -1 -1 -2 -5 -1 1 1 -0 -1 -0 1 -3 -4 -2 -4 -9 11 2 2
Height
1472 1479 1480 1476 1482 1487 1494 1502 1521 1531 1534 1541 1549 1555 1562 1564 1564 1565 1564 1564 1565 1564 1564 1564 1562 1561 1561 1560 1559 1558 1557 1556 1558 1559 1560 1561 1563 1564 1566 1567 1568 1569 1570 1570
1476 1472 1472 1478 1481 1485 1496 1509 1530 1536 1535 1539 1553 1559 1562 1564 1565 1565 1565 1565 1565 1565 1566 1565 1564 1561 1560 1560 1559 1559 1557 1557 1557 1558 1559 1561 1562 1563 1564 1566 1567 1568 1569 1570
1467 1464 1471 1476 1483 1487 1495 1503 1523 1518 1540 1544 1549 1557 1561 1564 1565 1564 1564 1564 1565 1565 1566 1565 1564 1562 1561 1560 1559 1559 1559 1558 1558 1559 1560 1561 1562 1563 1564 1565 1566 1566 1567 1567
1464 1464 1466 1474 1478 1481 1493 1495 1507 1523 1521 1525 1544 1525 1552 1557 1560 1562 1563 1563 1564 1564 1566 1565 1564 1563 1561 1560 1560 1560 1560 1560 1560 1561 1561 1562 1562 1563 1564 1565 1565 1566 1566 1566
1462 1464 1469 1471 1471 1477 1484 1489 1502 1514 1520 1529 1544 1537 1546 1552 1555 1556 1559 1561 1562 1563 1564 1564 1564 1563 1563 1562 1562 1562 1562 1561 1561 1562 1562 1563 1563 1564 1565 1565 1566 1566 1566 1566
1458 1458 1461 1462 1467 1471 1483 1494 1505 1511 1517 1519 1520 1521 1521 1542 1532 1546 1555 1558 1560 1561 1562 1563 1564 1564 1564 1563 1563 1563 1563 1563 1563 1563 1564 1564 1564 1565 1566 1566 1566 1566 1566 1566
1458 1458 1457 1459 1467 1474 1475 1488 1515 1513 1513 1502 1513 1520 1502 1528 1530 1535 1545 1553 1557 1560 1561 1562 1563 1564 1564 1564 1564 1564 1565 1565 1565 1565 1565 1565 1565 1566 1566 1566 1566 1567 1567 1566
1460 1466 1456 1454 1457 1466 1473 1471 1486 1487 1494 1496 1511 1504 1510 1535 1534 1537 1544 1550 1555 1558 1560 1561 1562 1563 1564 1564 1564 1565 1566 1566 1566 1566 1566 1566 1566 1566 1566 1567 1566 1566 1566 1566
1453 1453 1451 1452 1451 1453 1468 1472 1463 1480 1487 1496 1500 1530 1535 1537 1539 1541 1545 1550 1553 1556 1558 1560 1562 1562 1563 1564 1564 1565 1566 1566 1566 1566 1566 1566 1567 1567 1567 1566 1566 1566 1565 1565
1447 1456 1453 1452 1452 1452 1453 1455 1466 1473 1482 1481 1499 1507 1489 1528 1531 1537 1542 1546 1551 1554 1557 1559 1560 1561 1563 1563 1564 1565 1566 1566 1566 1566 1566 1566 1565 1566 1565 1565 1565 1565 1564 1563
1443 1447 1456 1455 1454 1451 1454 1454 1454 1453 1466 1464 1471 1474 1504 1506 1519 1528 1537 1543 1548 1552 1555 1557 1559 1561 1562 1563 1564 1565 1565 1566 1566 1566 1566 1565 1565 1565 1564 1564 1563 1563 1562 1561
1440 1448 1456 1454 1461 1459 1461 1457 1452 1449 1463 1475 1480 1478 1510 1508 1516 1525 1534 1541 1546 1551 1553 1556 1558 1560 1561 1562 1563 1564 1564 1564 1565 1564 1564 1564 1563 1563 1562 1562 1561 1560 1559 1558
1440 1451 1453 1459 1462 1464 1465 1466 1465 1466 1467 1466 1463 1475 1509 1511 1517 1524 1531 1538 1544 1548 1552 1555 1557 1559 1560 1561 1562 1563 1563 1563 1563 1563 1563 1562 1562 1561 1560 1559 1559 1557 1556 1555
1437 1445 1439 1425 1440 1449 1458 1463 1463 1460 1463 1468 1470 1515 1513 1512 1516 1524 1531 1536 1541 1547 1551 1553 1556 1558 1559 1560 1561 1561 1561 1561 1561 1561 1561 1560 1559 1558 1557 1556 1555 1553 1552 1551
1441 1439 1451 1456 1454 1455 1462 1456 1460 1459 1468 1450 1472 1481 1500 1505 1513 1521 1528 1535 1541 1545 1549 1552 1554 1556 1557 1558 1559 1559 1559 1559 1559 1558 1557 1556 1555 1554 1553 1552 1550 1549 1548 1546
1444 1443 1446 1459 1457 1456 1467 1469 1470 1476 1486 1487 1490 1495 1502 1509 1514 1522 1528 1534 1539 1542 1547 1550 1553 1554 1555 1556 1556 1556 1555 1555 1554 1553 1553 1552 1551 1550 1549 1548 1547 1546 1544 1543
1441 1445 1445 1451 1459 1458 1455 1471 1471 1481 1486 1483 1478 1489 1502 1510 1515 1521 1527 1533 1537 1542 1546 1549 1551 1552 1553 1553 1553 1552 1552 1551 1551 1550 1549 1549 1548 1547 1545 1544 1543 1541 1540 1538
1439 1445 1451 1462 1459 1443 1481 1483 1482 1481 1492 1493 1493 1498 1502 1510 1517 1524 1530 1533 1538 1541 1544 1547 1549 1550 1550 1550 1549 1548 1547 1547 1546 1546 1546 1545 1543 1542 1541 1540 1538 1536 1534 1531
1439 1442 1456 1456 1459 1473 1482 1483 1482 1474 1489 1496 1498 1502 1507 1513 1521 1527 1530 1534 1537 1540 1542 1545 1547 1547 1547 1547 1545 1544 1545 1543 1543 1543 1542 1540 1538 1537 1535 1534 1532 1530 1527 1525
1441 1442 1446 1462 1451 1440 1475 1477 1476 1479 1482 1494 1497 1502 1506 1512 1520 1524 1528 1532 1536 1538 1541 1543 1544 1544 1544 1543 1542 1542 1542 1541 1540 1539 1537 1536 1534 1532 1530 1528 1526 1524 1521 1518
1442 1447 1447 1452 1464 1478 1482 1479 1478 1464 1477 1491 1498 1503 1509 1514 1519 1522 1527 1532 1535 1537 1539 1540 1540 1541 1541 1541 1540 1539 1538 1537 1536 1534 1532 1530 1529 1526 1524 1521 1520 1517 1515 1512
1447 1445 1446 1461 1461 1450 1482 1482 1475 1484 1486 1493 1500 1507 1512 1516 1520 1525 1528 1531 1534 1536 1537 1538 1538 1538 1538 1537 1535 1534 1532 1532 1529 1527 1525 1524 1522 1519 1516 1513 1511 1509 1507 1504
1463 1470 1461 1479 1479 1487 1485 1483 1482 1485 1487 1497 1502 1509 1514 1518 1522 1525 1528 1531 1533 1534 1534 1535 1534 1533 1534 1532 1530 1527 1527 1524 1522 1519 1517 1515 1513 1510 1508 1505 1502 1500 1498 1496
1473 1473 1476 1484 1490 1489 1488 1486 1487 1492 1494 1501 1507 1511 1516 1519 1523 1526 1528 1530 1530 1531 1531 1530 1530 1528 1527 1526 1524 1521 1519 1516 1513 1510 1508 1506 1503 1501 1498 1496 1494 1491 1489 1487
1474 1474 1482 1491 1492 1492 1493 1491 1492 1496 1501 1505 1510 1514 1517 1521 1523 1525 1527 1528 1528 1528 1527 1526 1524 1522 1521 1519 1517 1515 1511 1508 1505 1501 1499 1496 1493 1491 1488 1486 1484 1481 1480 1478
1474 1472 1471 1473 1478 1482 1490 1494 1497 1500 1504 1509 1512 1515 1518 1520 1522 1524 1525 1525 1525 1524 1523 1521 1519 1516 1514 1512 1510 1508 1504 1500 1496 1491 1489 1486 1483 1480 1478 1475 1472 1473 1471 1470